This is the latest recevied weather packets stored in our database for station/object W4CKA. If no packets are shown the sender has not sent any weather packets the latest 10 day(s).
| Time | Temp. | Humidity | Pressure | Rain* | Wind** | Luminosity | Snow |
|---|---|---|---|---|---|---|---|
| 1778032333 | 16.67° C | 77% | 1053.1 hPa | 0 mm | - | 0 W/m² | - |
| 1778031731 | 16.67° C | 78% | 1052.8 hPa | 0 mm | - | 0 W/m² | - |
| 1778031126 | 17.22° C | 75% | 1053.1 hPa | 0 mm | - | 0 W/m² | - |
| 1778030525 | 17.78° C | 76% | 1053 hPa | 0 mm | - | 0 W/m² | - |
| 1778029924 | 18.33° C | 72% | 1052.8 hPa | 0 mm | - | 0 W/m² | - |
| 1778029319 | 18.33° C | 71% | 1053.3 hPa | 0 mm | - | 0 W/m² | - |
| 1778028719 | 18.89° C | 69% | 1053 hPa | 0 mm | - | 0 W/m² | - |
| 1778028119 | 18.89° C | 69% | 1053 hPa | 0 mm | - | 0 W/m² | - |
| 1778027517 | 19.44° C | 68% | 1053.3 hPa | 0 mm | - | 0 W/m² | - |
| 1778026915 | 19.44° C | 64% | 1053.2 hPa | 0 mm | - | 0 W/m² | - |
| 1778026314 | 19.44° C | 64% | 1053 hPa | 0 mm | - | 0 W/m² | - |
| 1778025708 | 20° C | 63% | 1053.3 hPa | 0 mm | - | 4 W/m² | - |
| 1778025109 | 20.56° C | 60% | 1053.3 hPa | 0 mm | - | 6 W/m² | - |
| 1778024508 | 20.56° C | 60% | 1053.4 hPa | 0 mm | - | 2 W/m² | - |
| 1778023909 | 20.56° C | 60% | 1053.4 hPa | 0 mm | - | 7 W/m² | - |
| 1778023303 | 21.11° C | 61% | 1053.3 hPa | 0 mm | - | 26 W/m² | - |
| 1778022699 | 21.11° C | 60% | 1053.3 hPa | 0 mm | - | 53 W/m² | - |
| 1778022098 | 21.11° C | 60% | 1053.3 hPa | 0 mm | - | 59 W/m² | - |
| 1778021497 | 21.11° C | 58% | 1053.5 hPa | 0 mm | - | 45 W/m² | - |
| 1778020897 | 21.67° C | 58% | 1053.4 hPa | 0 mm | - | 51 W/m² | - |
| 1778020296 | 22.22° C | 56% | 1053.6 hPa | 0 mm | - | 73 W/m² | - |
| 1778019695 | 22.78° C | 54% | 1053.5 hPa | 0 mm | - | 95 W/m² | - |
| 1778019094 | 23.33° C | 52% | 1053.7 hPa | 0 mm | - | 136 W/m² | - |
| 1778018489 | 23.89° C | 52% | 1053.6 hPa | 0 mm | - | 89 W/m² | - |
| 1778017885 | 25.56° C | 48% | 1053.5 hPa | 0 mm | - | 172 W/m² | - |
* Rain latest hour (hover to see other rain measurements)
** Current wind speed in m/s (hover to see current wind gust speed)